timestamp,surface_pressure_avg,surface_temp_avg,battery_voltage,lat,long
2019-09-12 00:00:00+00:00,335.8029,15.6,12.97,47.84626,-54.09684
2019-09-12 00:10:00+00:00,324.3729,15.6,12.89,47.84626,-54.09684
2019-09-12 00:20:00+00:00,317.983,15.6,12.97,47.84626,-54.09684
2019-09-12 00:30:00+00:00,315.4464,15.6,12.97,47.84626,-54.09684
2019-09-12 00:40:00+00:00,304.3597,15.6,12.97,47.84626,-54.09684
2019-09-12 00:50:00+00:00,300.993,15.6,12.97,47.84626,-54.09684
2019-09-12 01:00:00+00:00,295.9597,15.59,12.89,47.84626,-54.09684
2019-09-12 01:10:00+00:00,290.3663,15.58,12.81,47.84626,-54.09684
2019-09-12 01:20:00+00:00,274.8014,15.6,12.97,47.84626,-54.09684
2019-09-12 01:30:00+00:00,266.6947,15.6,12.97,47.84626,-54.09684
2019-09-12 01:40:00+00:00,262.6997,15.6,12.97,47.84626,-54.09684
2019-09-12 01:50:00+00:00,260.3247,15.6,12.97,47.84626,-54.09684
2019-09-12 02:00:00+00:00,250.5181,15.6,12.89,47.84626,-54.09684
2019-09-12 02:10:00+00:00,241.7531,15.6,12.81,47.84626,-54.09684
2019-09-12 02:20:00+00:00,235.0314,15.59,12.97,47.84626,-54.09684
2019-09-12 02:30:00+00:00,229.6497,15.53,12.97,47.84626,-54.09684
2019-09-12 02:40:00+00:00,226.9698,15.5,12.97,47.84626,-54.09684
2019-09-12 02:50:00+00:00,226.5214,15.5,12.97,47.84626,-54.09684
2019-09-12 03:00:00+00:00,225.4015,15.48,12.89,47.84626,-54.09684
2019-09-12 03:10:00+00:00,219.6681,15.4,12.81,47.84626,-54.09684
2019-09-12 03:20:00+00:00,215.5431,15.4,12.89,47.84626,-54.09684
2019-09-12 03:30:00+00:00,211.9664,15.4,12.89,47.84626,-54.09684
2019-09-12 03:40:00+00:00,204.6898,15.3,12.97,47.84626,-54.09684
2019-09-12 03:50:00+00:00,196.7515,15.2,12.97,47.84626,-54.09684
2019-09-12 04:00:00+00:00,200.3281,15.2,12.89,47.84626,-54.09684
2019-09-12 04:10:00+00:00,204.0198,15.2,12.81,47.84626,-54.09684
2019-09-12 04:20:00+00:00,198.7214,15.19,12.89,47.84626,-54.09684
2019-09-12 04:30:00+00:00,204.4615,15.16,12.89,47.84626,-54.09684
2019-09-12 04:40:00+00:00,209.8731,15.16,12.97,47.84626,-54.09684
2019-09-12 04:50:00+00:00,203.1015,15.1,12.97,47.84626,-54.09684
2019-09-12 05:00:00+00:00,201.5382,15.1,12.89,47.84626,-54.09684
2019-09-12 05:10:00+00:00,206.0048,15.11,12.81,47.84626,-54.09684
2019-09-12 05:20:00+00:00,200.6448,15.1,12.89,47.84626,-54.09684
2019-09-12 05:30:00+00:00,201.6381,15.1,12.89,47.84626,-54.09684
2019-09-12 05:40:00+00:00,211.1581,15.14,12.89,47.84626,-54.09684
2019-09-12 05:50:00+00:00,212.1014,15.1,12.89,47.84626,-54.09684
2019-09-12 06:00:00+00:00,217.2581,15.1,12.81,47.84626,-54.09684
2019-09-12 06:10:00+00:00,222.2598,15.1,12.81,47.84626,-54.09684
2019-09-12 06:20:00+00:00,223.4932,15.1,12.89,47.84626,-54.09684
2019-09-12 06:30:00+00:00,226.5048,15.2,12.89,47.84626,-54.09684
2019-09-12 06:40:00+00:00,231.9064,15.23,12.89,47.84626,-54.09684
2019-09-12 06:50:00+00:00,234.4914,15.23,12.89,47.84626,-54.09684
2019-09-12 07:00:00+00:00,236.2331,15.26,12.81,47.84626,-54.09684
2019-09-12 07:10:00+00:00,242.5331,15.28,12.73,47.84626,-54.09684
2019-09-12 07:20:00+00:00,250.3798,15.3,12.81,47.84626,-54.09684
2019-09-12 07:30:00+00:00,258.2614,15.3,12.81,47.84626,-54.09684
2019-09-12 07:40:00+00:00,264.6664,15.3,12.89,47.84626,-54.09684
2019-09-12 07:50:00+00:00,268.203,15.35,12.89,47.84626,-54.09684
2019-09-12 08:00:00+00:00,273.0114,15.39,12.81,47.84626,-54.09684
2019-09-12 08:10:00+00:00,282.2564,15.4,12.73,47.84626,-54.09684
2019-09-12 08:20:00+00:00,286.8215,15.4,12.81,47.84626,-54.09684
2019-09-12 08:30:00+00:00,287.9465,15.4,12.81,47.84626,-54.09684
2019-09-12 08:40:00+00:00,292.278,15.43,12.81,47.84626,-54.09684
2019-09-12 08:50:00+00:00,300.3179,15.45,12.81,47.84626,-54.09684
2019-09-12 09:00:00+00:00,304.108,15.47,12.73,47.84626,-54.09684
2019-09-12 09:10:00+00:00,310.0347,15.48,12.73,47.84626,-54.09684
2019-09-12 09:20:00+00:00,318.3264,15.49,12.81,47.84626,-54.09684
2019-09-12 09:30:00+00:00,318.1846,15.5,12.81,47.84626,-54.09684
2019-09-12 09:40:00+00:00,313.6396,15.4,12.81,47.84626,-54.09684
2019-09-12 09:50:00+00:00,320.1714,15.4,12.81,47.84626,-54.09684
2019-09-12 10:00:00+00:00,329.3846,15.41,12.73,47.84626,-54.09684
2019-09-12 10:10:00+00:00,326.508,15.46,12.65,47.84626,-54.09684
2019-09-12 10:20:00+00:00,324.9396,15.48,12.73,47.84626,-54.09684
2019-09-12 10:30:00+00:00,330.7562,15.49,12.81,47.84626,-54.09684
2019-09-12 10:40:00+00:00,331.3162,15.5,12.81,47.84626,-54.09684
2019-09-12 10:50:00+00:00,329.2362,15.5,12.81,47.84626,-54.09684
2019-09-12 11:00:00+00:00,332.6729,15.5,12.73,47.84626,-54.09684
2019-09-12 11:10:00+00:00,333.5297,15.5,12.65,47.84626,-54.09684
2019-09-12 11:20:00+00:00,328.3981,15.41,12.73,47.84626,-54.09684
2019-09-12 11:30:00+00:00,326.7564,15.4,12.81,47.84626,-54.09684
2019-09-12 11:40:00+00:00,330.2412,15.4,12.81,47.84626,-54.09684
2019-09-12 11:50:00+00:00,325.0213,15.4,12.81,47.84626,-54.09684
2019-09-12 12:00:00+00:00,315.5814,15.2,12.73,47.84626,-54.09684
2019-09-12 12:10:00+00:00,313.2897,15.2,12.73,47.84626,-54.09684
2019-09-12 12:20:00+00:00,315.9197,15.2,12.81,47.84626,-54.09684
2019-09-12 12:30:00+00:00,309.5897,15.2,12.81,47.84626,-54.09684
2019-09-12 12:40:00+00:00,302.713,15.2,12.89,47.84626,-54.09684
2019-09-12 12:50:00+00:00,302.9999,15.2,12.97,47.84626,-54.09684
2019-09-12 13:00:00+00:00,296.4147,15.2,12.89,47.84626,-54.09684
2019-09-12 13:10:00+00:00,278.7014,15.2,12.81,47.84626,-54.09684
2019-09-12 13:20:00+00:00,270.218,15.2,12.89,47.84626,-54.09684
2019-09-12 13:30:00+00:00,268.8464,15.2,12.97,47.84626,-54.09684
2019-09-12 13:40:00+00:00,259.2181,15.2,13.05,47.84626,-54.09684
2019-09-12 13:50:00+00:00,246.7531,15.11,13.13,47.84626,-54.09684
2019-09-12 14:00:00+00:00,245.4215,15.1,13.05,47.84626,-54.09684
2019-09-12 14:10:00+00:00,241.7198,15.1,12.97,47.84626,-54.09684
2019-09-12 14:20:00+00:00,232.7031,15.1,13.05,47.84626,-54.09684
2019-09-12 14:30:00+00:00,227.3797,15.16,13.13,47.84626,-54.09684
2019-09-12 14:40:00+00:00,224.9464,15.2,13.13,47.84626,-54.09684
2019-09-12 14:50:00+00:00,219.8231,15.2,13.21,47.84626,-54.09684
2019-09-12 15:00:00+00:00,213.7615,15.2,13.13,47.84626,-54.09684
2019-09-12 15:10:00+00:00,207.4364,15.2,13.05,47.84626,-54.09684
2019-09-12 15:20:00+00:00,201.1281,15.2,13.13,47.84626,-54.09684
2019-09-12 15:30:00+00:00,199.7731,15.2,13.21,47.84626,-54.09684
2019-09-12 15:40:00+00:00,202.3998,15.2,13.29,47.84626,-54.09684
2019-09-12 15:50:00+00:00,198.7848,15.2,13.29,47.84626,-54.09684
2019-09-12 16:00:00+00:00,192.7547,15.1,13.21,47.84626,-54.09684
2019-09-12 16:10:00+00:00,191.5314,15.0,13.13,47.84626,-54.09684
2019-09-12 16:20:00+00:00,194.3498,14.86,13.29,47.84626,-54.09684
2019-09-12 16:30:00+00:00,197.4864,14.8,13.29,47.84626,-54.09684
2019-09-12 16:40:00+00:00,192.1765,14.8,13.37,47.84626,-54.09684
2019-09-12 16:50:00+00:00,189.7465,14.8,13.44,47.84626,-54.09684
2019-09-12 17:00:00+00:00,195.8981,14.8,13.37,47.84626,-54.09684
2019-09-12 17:10:00+00:00,192.0598,14.8,13.29,47.84626,-54.09684
2019-09-12 17:20:00+00:00,185.6448,14.83,13.53,47.84626,-54.09684
2019-09-12 17:30:00+00:00,188.6747,14.99,13.6,47.84626,-54.09684
2019-09-12 17:40:00+00:00,192.2448,14.9,13.68,47.84626,-54.09684
2019-09-12 17:50:00+00:00,192.6082,14.76,13.6,47.84626,-54.09684
2019-09-12 18:00:00+00:00,195.3564,14.8,13.44,47.84626,-54.09684
2019-09-12 18:10:00+00:00,202.5798,14.89,13.37,47.84626,-54.09684
2019-09-12 18:20:00+00:00,208.8848,15.1,13.44,47.84626,-54.09684
2019-09-12 18:30:00+00:00,207.6097,15.12,13.44,47.84626,-54.09684
2019-09-12 18:40:00+00:00,208.4115,15.16,13.44,47.84626,-54.09684
2019-09-12 18:50:00+00:00,218.9648,15.2,13.53,47.84626,-54.09684
2019-09-12 19:00:00+00:00,229.1064,15.21,13.44,47.84626,-54.09684
2019-09-12 19:10:00+00:00,229.0931,15.3,13.29,47.84626,-54.09684
2019-09-12 19:20:00+00:00,231.5248,15.36,13.37,47.84626,-54.09684
2019-09-12 19:30:00+00:00,241.5064,15.38,13.37,47.84626,-54.09684
2019-09-12 19:40:00+00:00,246.4247,15.1,13.44,47.84626,-54.09684
2019-09-12 19:50:00+00:00,249.5014,15.13,13.44,47.84626,-54.09684
2019-09-12 20:00:00+00:00,259.6065,15.39,13.37,47.84626,-54.09684
2019-09-12 20:10:00+00:00,265.9881,15.4,13.29,47.84626,-54.09684
2019-09-12 20:20:00+00:00,267.8114,15.4,13.29,47.84626,-54.09684
2019-09-12 20:30:00+00:00,270.0431,15.4,13.29,47.84626,-54.09684
2019-09-12 20:40:00+00:00,281.8264,15.26,13.29,47.84626,-54.09684
2019-09-12 20:50:00+00:00,290.5514,15.35,13.29,47.84626,-54.09684
2019-09-12 21:00:00+00:00,295.3747,15.3,13.21,47.84626,-54.09684
2019-09-12 21:10:00+00:00,298.9963,15.35,13.05,47.84626,-54.09684
2019-09-12 21:20:00+00:00,312.4263,15.39,13.13,47.84626,-54.09684
2019-09-12 21:30:00+00:00,318.223,15.39,13.13,47.84626,-54.09684
2019-09-12 21:40:00+00:00,317.5831,15.3,13.13,47.84626,-54.09684
2019-09-12 21:50:00+00:00,324.7447,15.3,13.13,47.84626,-54.09684
2019-09-12 22:00:00+00:00,336.613,15.3,13.05,47.84626,-54.09684
2019-09-12 22:10:00+00:00,339.4747,15.3,12.97,47.84626,-54.09684
2019-09-12 22:20:00+00:00,342.1029,15.3,13.05,47.84626,-54.09684
2019-09-12 22:30:00+00:00,346.943,15.29,13.05,47.84626,-54.09684
2019-09-12 22:40:00+00:00,350.1646,15.29,13.05,47.84626,-54.09684
2019-09-12 22:50:00+00:00,347.748,15.3,13.05,47.84626,-54.09684
2019-09-12 23:00:00+00:00,347.4147,15.3,12.97,47.84626,-54.09684
2019-09-12 23:10:00+00:00,354.463,15.3,12.89,47.84626,-54.09684
2019-09-12 23:20:00+00:00,352.2063,15.3,12.97,47.84626,-54.09684
2019-09-12 23:30:00+00:00,344.8297,15.3,12.97,47.84626,-54.09684
2019-09-12 23:40:00+00:00,340.0697,15.27,13.05,47.84626,-54.09684
2019-09-12 23:50:00+00:00,341.3812,15.1,13.05,47.84626,-54.09684
